TimeEDT,TemperatureF,Dew PointF,Humidity,Sea Level PressureIn,VisibilityMPH,Wind Direction,Wind SpeedMPH,Gust SpeedMPH,PrecipitationIn,Events,Conditions,WindDirDegrees,DateUTC
12:53 AM,68.0,66.0,93,29.89,10.0,Calm,Calm,-,N/A,,Unknown,0,2013-05-23 04:53:00
1:53 AM,66.0,64.9,96,29.90,8.0,Calm,Calm,-,N/A,,Clear,0,2013-05-23 05:53:00
2:53 AM,66.9,64.9,93,29.90,10.0,SW,3.5,-,N/A,,Overcast,220,2013-05-23 06:53:00
4:53 AM,66.0,64.9,96,29.93,10.0,Calm,Calm,-,N/A,,Mostly Cloudy,0,2013-05-23 08:53:00
5:53 AM,64.9,64.0,97,29.94,7.0,Calm,Calm,-,N/A,,Mostly Cloudy,0,2013-05-23 09:53:00
6:53 AM,64.0,64.0,100,29.96,2.5,Calm,Calm,-,N/A,,Clear,0,2013-05-23 10:53:00
6:57 AM,64.4,64.4,100,29.98,1.5,Calm,Calm,-,N/A,,Partly Cloudy,0,2013-05-23 10:57:00
7:02 AM,64.4,64.4,100,29.98,0.8,Calm,Calm,-,N/A,,Mist,0,2013-05-23 11:02:00
7:20 AM,64.4,64.4,100,29.98,1.0,WSW,3.5,-,N/A,,Mist,240,2013-05-23 11:20:00
7:34 AM,64.4,64.4,100,29.98,3.0,Calm,Calm,-,N/A,,Mostly Cloudy,0,2013-05-23 11:34:00
7:45 AM,64.4,64.4,100,29.99,3.0,SW,3.5,-,N/A,,Scattered Clouds,230,2013-05-23 11:45:00
7:53 AM,64.9,64.0,97,29.97,2.5,Calm,Calm,-,N/A,,Scattered Clouds,0,2013-05-23 11:53:00
8:05 AM,64.4,64.4,100,29.99,3.0,SW,4.6,-,N/A,,Scattered Clouds,230,2013-05-23 12:05:00
8:12 AM,64.4,64.4,100,29.99,2.5,Variable,3.5,-,N/A,,Mostly Cloudy,0,2013-05-23 12:12:00
8:20 AM,64.4,64.4,100,30.00,1.5,Calm,Calm,-,N/A,,Mostly Cloudy,0,2013-05-23 12:20:00
8:43 AM,66.2,66.2,100,30.00,3.0,SSW,3.5,-,N/A,,Mostly Cloudy,210,2013-05-23 12:43:00
8:53 AM,68.0,66.0,93,29.97,5.0,Calm,Calm,-,N/A,,Scattered Clouds,0,2013-05-23 12:53:00
9:53 AM,73.9,66.0,76,29.97,10.0,Calm,Calm,-,N/A,,Scattered Clouds,0,2013-05-23 13:53:00
10:53 AM,77.0,64.0,64,29.97,10.0,WNW,8.1,-,N/A,,Mostly Cloudy,290,2013-05-23 14:53:00
11:53 AM,79.0,63.0,58,29.96,10.0,Variable,4.6,-,N/A,,Partly Cloudy,0,2013-05-23 15:53:00
12:53 PM,79.0,61.0,54,29.95,10.0,West,8.1,-,N/A,,Mostly Cloudy,280,2013-05-23 16:53:00
1:53 PM,81.0,61.0,50,29.94,10.0,West,5.8,18.4,N/A,,Scattered Clouds,260,2013-05-23 17:53:00
2:53 PM,82.9,60.1,46,29.94,10.0,West,9.2,18.4,N/A,,Scattered Clouds,280,2013-05-23 18:53:00
3:53 PM,82.9,59.0,44,29.96,10.0,West,13.8,20.7,N/A,,Partly Cloudy,280,2013-05-23 19:53:00
4:53 PM,82.9,59.0,44,29.92,10.0,WNW,9.2,21.9,N/A,,Partly Cloudy,290,2013-05-23 20:53:00
5:53 PM,82.0,60.1,47,29.93,10.0,NW,8.1,-,N/A,,Mostly Cloudy,310,2013-05-23 21:53:00
6:53 PM,81.0,57.0,44,29.92,10.0,WNW,5.8,-,N/A,,Scattered Clouds,300,2013-05-23 22:53:00
7:53 PM,78.1,55.9,46,29.94,10.0,WNW,8.1,-,N/A,,Scattered Clouds,300,2013-05-23 23:53:00
8:53 PM,75.0,55.0,50,29.95,10.0,WNW,4.6,-,N/A,,Partly Cloudy,300,2013-05-24 00:53:00
9:53 PM,73.0,55.9,55,29.96,10.0,WNW,3.5,-,N/A,,Mostly Cloudy,300,2013-05-24 01:53:00
10:53 PM,71.1,55.9,59,29.98,10.0,NNW,4.6,-,N/A,,Clear,330,2013-05-24 02:53:00
11:53 PM,69.1,55.9,63,29.99,10.0,NNW,6.9,-,N/A,,Unknown,330,2013-05-24 03:53:00